Theta_e
328 317 311 319 311 310 307 302 296 292 295 290 284 290 293 297 296 299 299 301 299 302 303 306 303 304 302 299 299 303 307 304 302 298 293 303 325 335 334 336 337 337 337 337 336 337 336 340 341 341 340 339 342 346 346 346 346 344 342 341 341 340 340 339 341 345 345 345 345 344 344 344 343 342 342 341 341 342 343 343 343 342 342 341 341 341 341 342 344 344 344 344 345 344 344 343 342
324 316 312 315 310 306 304 298 290 286 286 284 287 288 291 294 300 297 299 297 299 303 305 310 312 314 314 314 313 308 305 313 310 313 321 328 335 333 335 337 337 336 337 336 335 334 334 337 342 340 339 341 345 346 345 346 346 343 342 341 341 337 334 335 340 341 343 344 345 346 345 343 343 343 343 343 342 343 343 342 342 342 342 342 343 342 342 343 344 344 344 344 344 345 343 343 343
321 313 311 311 311 305 301 297 295 284 285 285 283 289 292 295 296 297 297 299 303 307 309 310 309 307 308 308 303 303 300 320 322 324 327 334 330 332 336 337 338 338 337 335 334 334 334 337 342 342 341 342 345 346 345 345 346 343 342 342 339 337 339 339 339 341 343 343 344 346 345 345 345 344 344 345 344 344 344 343 343 343 343 341 341 341 341 343 344 344 343 344 344 344 343 343 342
315 315 310 306 306 300 295 291 288 285 290 284 284 288 291 295 297 297 296 301 306 306 303 304 306 308 306 305 307 311 312 314 322 326 326 330 331 336 337 337 338 338 336 335 334 334 335 339 343 342 341 340 342 345 345 345 346 345 342 339 339 339 337 335 339 340 342 342 344 345 345 345 345 344 344 345 345 344 343 343 343 342 343 343 342 343 343 343 343 343 343 343 344 343 343 343 342
313 315 309 304 302 302 294 291 287 286 287 285 288 288 291 291 298 295 301 301 303 300 302 303 307 311 311 310 310 304 307 316 326 326 328 330 336 338 337 337 338 337 334 334 334 334 334 341 342 343 341 341 342 344 345 345 345 345 342 341 340 338 337 337 338 339 341 342 343 345 345 344 345 344 344 343 343 343 343 343 342 342 342 343 343 343 342 343 343 343 343 343 343 343 342 342 342
309 310 310 306 303 304 295 293 290 289 288 288 289 290 292 294 298 298 301 302 300 299 300 302 306 308 312 314 313 307 316 314 322 323 328 330 335 338 337 337 338 336 334 333 334 333 334 340 341 343 342 343 343 344 344 344 345 345 342 341 340 338 337 337 337 336 340 343 344 344 344 344 344 344 343 343 342 343 342 343 343 342 342 342 343 343 343 343 343 344 343 342 343 342 341 342 341
312 304 302 301 299 298 292 288 286 286 292 291 291 290 295 295 300 300 300 301 302 303 303 308 312 310 308 311 314 319 319 322 322 320 328 333 336 336 337 338 338 336 334 333 334 333 334 340 343 344 344 343 342 343 343 345 345 345 343 341 340 338 337 337 337 337 340 343 343 343 343 344 344 343 342 342 342 342 341 342 341 341 341 342 341 341 342 343 342 342 342 342 342 342 342 341 341
313 306 301 293 289 294 289 286 287 287 291 292 290 296 296 299 300 299 299 299 300 301 307 310 308 303 305 312 307 316 321 321 322 328 333 336 336 336 337 338 336 336 336 333 333 333 340 340 343 344 343 342 342 342 342 344 345 344 342 341 341 339 338 337 337 338 338 341 342 343 343 343 342 342 341 341 341 341 341 341 341 341 340 340 341 340 341 341 341 341 342 341 341 341 341 341 341
308 306 302 296 293 289 284 288 288 289 290 289 294 297 304 301 301 300 298 299 300 300 305 307 301 302 304 310 308 314 319 323 329 333 335 336 335 335 337 337 336 335 335 334 333 333 334 338 341 343 342 342 342 341 342 344 344 343 343 342 341 339 337 337 335 337 338 338 341 342 342 342 342 341 341 340 340 340 340 339 340 340 340 340 340 340 340 341 341 341 341 341 340 340 340 340 340
305 304 296 293 288 290 283 284 288 288 291 290 295 299 302 300 300 300 299 299 301 301 304 301 300 301 305 308 309 315 319 324 331 332 334 335 335 335 335 336 337 336 335 335 334 334 334 341 339 340 341 343 343 342 341 343 343 342 341 340 339 338 338 336 337 337 338 338 340 342 340 340 340 340 340 339 339 339 339 339 339 339 339 339 339 340 340 340 340 340 340 340 340 339 339 339 339
301 299 297 295 288 286 287 284 285 289 290 289 297 299 301 300 300 298 298 300 299 300 301 306 307 308 309 308 306 314 319 325 331 329 333 334 334 334 334 336 338 337 335 335 333 334 336 337 340 338 339 341 342 343 343 343 342 341 340 338 338 338 337 337 337 336 336 337 342 341 339 339 340 340 340 340 340 339 340 340 340 340 340 340 339 339 339 338 339 340 340 339 339 339 339 339 339
299 296 296 287 285 285 284 286 287 290 289 291 299 300 298 300 298 298 297 300 299 299 301 304 304 309 307 307 309 316 323 325 330 332 333 333 333 334 335 336 337 336 336 335 335 335 336 336 336 339 337 338 338 340 341 341 342 341 339 338 337 337 337 337 337 337 337 338 340 341 341 341 340 340 339 339 339 339 339 339 339 339 339 339 338 338 339 338 338 339 339 339 338 337 337 337 337
298 297 291 290 286 287 286 288 288 292 287 289 297 300 298 298 297 298 298 300 297 298 299 301 311 308 303 305 308 315 321 324 329 332 332 332 332 335 335 336 337 335 334 335 337 337 336 335 334 336 334 334 335 336 337 338 340 341 341 338 337 337 339 338 339 338 337 337 340 340 340 340 339 339 339 339 339 339 337 337 337 338 338 338 337 337 338 337 338 338 338 338 338 337 336 336 336
301 297 294 293 286 286 287 287 286 290 288 290 291 296 299 298 297 297 297 299 297 299 300 301 313 310 307 309 312 315 321 324 329 330 331 331 333 335 335 336 336 334 333 335 337 337 336 333 334 334 334 333 332 333 333 335 337 340 340 339 338 338 340 341 341 341 340 340 339 339 339 339 339 339 338 338 338 338 338 338 338 336 336 336 337 337 337 337 337 337 337 337 337 336 336 335 334
305 299 294 288 287 287 286 290 289 286 288 289 296 296 297 299 296 295 299 300 298 298 304 308 310 304 299 308 307 318 322 324 327 328 329 331 333 334 335 336 335 334 335 335 337 337 337 335 335 333 332 332 331 330 329 332 333 335 336 336 336 338 337 337 337 337 336 335 335 335 335 334 333 334 333 334 334 334 333 331 334 336 336 337 336 336 336 336 336 336 336 336 335 334 334 334 333
304 297 293 293 287 287 288 289 288 287 290 289 295 295 298 298 295 297 297 299 299 302 305 308 307 303 304 307 309 322 324 325 327 327 330 331 332 334 335 334 334 334 335 335 336 337 337 336 336 335 333 333 331 330 329 329 330 331 333 334 334 334 333 333 333 332 329 328 328 329 328 328 328 327 327 327 329 331 330 328 331 336 336 335 335 335 335 335 335 335 335 334 333 332 332 331 331
304 301 294 286 289 287 287 290 290 291 289 289 291 296 299 297 296 297 297 298 301 301 309 312 308 313 311 309 308 325 325 325 325 327 329 331 332 331 332 332 332 332 334 334 335 337 337 337 336 336 335 335 334 331 328 328 329 329 330 329 329 329 329 330 329 325 322 322 322 322 323 322 321 321 322 321 323 322 322 325 329 334 336 336 334 334 335 334 334 334 334 333 332 331 325 325 324
306 299 291 289 287 288 291 292 292 293 293 294 292 295 297 294 295 298 302 302 302 305 308 308 312 313 312 313 315 326 325 325 325 326 327 329 331 329 329 330 330 329 331 331 334 336 337 337 336 336 336 336 335 334 332 326 326 329 326 326 324 325 325 324 322 322 326 319 321 321 320 321 320 318 320 325 320 321 322 323 325 330 334 333 334 334 334 333 332 334 333 332 331 326 321 316 315
301 292 293 293 289 294 296 293 295 294 294 292 294 293 298 298 296 297 298 297 304 304 307 307 310 312 315 318 322 324 324 324 324 325 326 327 329 328 328 329 329 329 329 331 332 334 336 336 337 336 336 336 335 335 333 331 330 330 327 323 323 324 323 320 320 320 318 319 317 318 318 320 318 318 318 319 319 320 322 322 325 328 331 331 332 333 332 331 331 332 332 330 327 321 315 312 314
299 296 291 291 294 296 294 291 293 295 295 294 294 294 293 296 296 297 298 296 299 301 302 305 307 309 312 317 322 323 324 323 324 323 325 327 329 329 329 328 328 328 329 331 331 334 336 335 335 336 335 336 335 335 334 332 331 331 327 322 323 322 320 320 318 317 318 318 318 318 318 317 317 316 324 325 323 318 320 321 322 323 325 325 324 324 327 328 328 327 327 322 318 315 313 312 313
298 295 292 294 296 296 296 292 292 292 294 294 293 292 294 295 295 297 295 298 297 299 303 307 307 310 314 318 321 322 322 322 323 322 323 326 329 330 330 330 329 329 330 332 332 332 334 334 335 335 335 335 335 334 333 331 331 330 328 323 322 321 321 320 319 318 316 317 316 318 317 316 316 317 318 315 316 316 315 316 316 316 315 314 317 313 312 309 311 306 311 314 312 312 313 312 313
299 296 295 296 295 296 297 291 291 292 291 293 291 294 295 295 295 294 298 298 298 301 302 306 308 315 317 318 320 322 322 321 322 321 322 325 327 328 330 330 332 332 331 330 331 333 334 334 335 335 335 335 335 334 333 332 331 330 329 327 323 322 321 320 319 320 319 319 316 316 318 317 315 317 314 314 314 314 316 313 313 312 311 312 313 311 310 309 308 309 309 313 310 311 311 311 310
295 295 298 301 295 295 295 292 292 292 293 293 292 295 294 296 294 292 298 300 299 298 301 307 313 318 320 321 321 320 321 321 321 321 321 323 325 327 329 330 330 330 330 330 331 333 334 334 335 335 334 334 334 335 334 332 331 331 330 328 325 323 321 321 320 319 320 318 317 316 318 316 316 315 314 313 314 312 315 313 312 311 311 312 312 312 308 309 309 310 309 309 310 311 309 309 308
297 294 296 300 300 298 296 295 291 290 293 294 294 294 296 293 294 292 295 300 296 292 303 311 316 318 320 320 320 321 321 321 321 323 322 323 325 326 327 328 330 331 330 331 331 332 332 333 334 334 334 334 334 335 333 332 332 331 331 328 326 323 322 322 321 321 320 320 318 318 318 319 318 315 315 315 314 312 315 313 311 311 311 312 313 310 309 308 308 309 310 309 310 308 309 309 308
296 295 295 296 295 295 295 292 289 290 292 292 293 294 296 295 294 291 295 298 294 294 304 316 317 318 319 320 320 320 320 321 321 322 322 322 324 325 324 328 328 329 329 330 331 331 331 333 334 333 334 334 334 334 333 332 332 332 331 329 328 323 323 323 323 321 321 320 319 319 317 318 317 317 316 316 313 315 313 312 312 312 311 311 310 311 309 308 308 307 309 311 307 308 307 308 308
294 294 294 295 296 296 295 293 291 291 291 291 294 292 291 292 294 293 296 296 293 298 311 315 317 317 318 319 320 320 320 320 321 321 322 321 321 322 322 325 326 326 328 329 329 330 331 333 333 333 333 334 334 334 333 332 332 331 330 329 329 325 324 324 321 321 322 321 319 318 319 319 319 319 317 314 315 315 313 312 312 312 313 311 310 314 309 309 309 308 309 310 309 308 308 309 308
296 294 294 296 297 296 295 292 292 291 293 290 295 292 291 292 293 294 293 294 297 300 311 314 316 316 317 318 319 320 320 320 320 322 321 319 319 322 322 323 324 326 327 327 328 329 330 332 333 333 332 331 334 334 333 332 332 331 330 329 329 327 325 323 323 323 322 321 321 319 319 319 320 319 318 316 315 314 314 314 314 313 312 311 312 314 309 311 309 310 311 310 308 308 309 308 309
297 297 297 296 295 296 295 293 292 292 294 289 294 292 290 291 292 295 294 294 298 299 309 313 314 315 317 318 318 320 320 321 320 320 320 319 320 321 322 322 324 325 326 327 328 329 329 331 333 333 332 332 333 334 333 333 332 331 331 330 328 327 325 324 323 323 323 323 322 320 319 319 319 318 318 316 316 315 314 314 313 313 314 312 313 313 311 311 311 309 309 309 309 309 308 307 307
298 298 297 295 294 294 293 294 293 293 294 292 292 294 290 291 291 297 292 297 298 299 308 313 313 315 316 317 318 319 319 320 319 319 321 322 323 323 322 323 324 324 326 327 327 326 328 330 332 332 333 331 333 334 333 333 332 332 331 330 329 327 326 325 324 324 324 323 322 321 320 319 319 319 317 317 316 316 315 314 312 313 315 314 313 312 310 310 309 309 309 309 309 308 308 311 307
298 298 296 293 293 291 295 292 292 292 294 290 293 286 285 291 295 295 292 301 299 297 303 311 313 314 315 316 317 318 318 318 319 319 321 322 323 323 323 323 324 325 325 325 326 326 328 330 331 332 332 332 332 334 334 333 331 331 331 331 329 328 328 326 325 325 324 324 322 321 321 319 318 319 318 317 316 316 315 315 314 314 313 312 312 311 311 310 311 308 308 309 309 308 310 311 307
295 298 295 291 289 288 291 293 292 293 293 291 293 287 286 292 296 295 293 300 300 298 299 307 311 312 313 314 316 316 317 319 320 320 320 322 323 323 323 324 323 324 323 324 325 326 326 328 330 332 330 332 330 332 331 332 331 330 330 331 330 329 329 328 327 326 325 325 324 323 322 321 319 319 319 318 317 316 315 314 313 315 313 310 311 311 312 310 311 312 307 308 306 306 305 307 305
298 296 291 289 288 287 292 293 292 293 293 292 292 286 290 293 295 292 292 297 299 299 299 302 308 310 312 313 314 315 316 318 319 320 321 322 322 323 323 323 324 323 324 324 325 325 326 327 328 330 329 330 331 331 331 331 330 330 330 327 330 329 329 329 328 327 326 327 327 326 325 324 322 321 319 318 317 316 316 315 315 313 311 311 311 309 309 311 310 310 307 309 308 308 305 309 304
296 293 290 290 287 288 291 293 291 294 292 293 292 287 286 292 294 289 289 297 299 299 298 300 303 306 309 312 313 314 314 314 316 318 320 321 321 322 323 323 324 324 324 324 324 324 325 326 326 328 328 330 330 330 330 330 330 329 329 329 329 328 328 328 329 328 326 327 328 328 327 325 323 321 319 318 318 316 315 316 314 313 311 312 310 309 310 311 311 310 307 306 308 308 306 307 309
291 291 288 289 288 287 288 291 292 292 291 291 290 288 288 290 289 287 290 294 296 298 298 299 302 303 306 309 311 312 313 313 314 316 318 320 321 322 323 321 324 324 324 324 325 325 325 326 326 327 329 329 330 330 330 330 329 329 329 329 326 328 327 327 327 326 326 327 328 327 327 326 324 322 319 318 318 317 316 316 312 312 312 311 310 310 311 309 309 311 310 306 308 308 309 310 311
289 289 286 288 288 287 290 291 292 292 292 290 288 287 291 295 294 291 289 292 294 296 298 297 300 301 302 304 306 309 310 311 313 316 317 319 320 322 323 323 323 324 325 324 324 325 325 326 325 325 327 329 329 330 329 329 328 327 328 328 328 328 327 327 327 326 326 325 326 327 326 325 323 322 320 318 318 317 315 314 313 311 312 311 311 310 310 308 309 308 310 309 306 311 312 312 312
292 292 290 288 288 289 287 291 291 294 291 290 288 288 291 293 294 295 290 291 292 294 292 291 293 297 299 300 303 305 307 309 312 313 315 318 320 321 322 323 323 323 324 324 323 324 325 325 325 325 326 328 329 329 328 327 326 326 326 327 327 328 329 327 327 327 325 325 325 325 325 325 323 321 320 319 319 318 317 316 314 311 311 312 311 310 310 310 309 308 309 310 310 311 311 312 311
292 290 288 287 287 289 291 291 292 291 291 290 290 290 291 294 295 295 292 290 290 290 292 292 291 293 296 297 299 302 304 307 309 309 310 314 318 320 322 322 322 322 323 323 323 323 324 325 324 324 325 327 328 328 327 328 327 327 327 327 327 329 329 329 328 328 327 326 325 325 325 324 324 323 322 321 320 318 318 318 315 312 313 313 313 313 313 312 312 313 313 312 312 309 307 305 306
291 290 287 287 287 284 288 290 292 292 290 288 288 287 291 294 295 294 289 289 290 291 292 292 293 292 294 296 297 298 302 303 302 304 306 310 314 317 319 320 319 320 321 322 322 323 324 324 324 324 325 326 327 328 328 327 329 329 328 328 328 329 329 328 328 328 328 327 326 326 326 325 325 325 324 323 322 320 318 316 315 315 314 314 314 314 313 311 314 313 312 310 309 309 305 303 304
292 290 288 286 286 287 289 290 292 291 290 288 287 287 289 293 294 293 288 290 291 293 294 295 295 293 292 293 295 297 297 298 300 303 305 308 311 314 317 319 320 321 322 322 323 323 323 324 324 324 324 325 327 328 328 327 328 328 328 327 328 325 327 330 330 329 328 328 328 327 326 326 326 326 326 324 323 322 320 317 316 316 314 313 313 313 313 312 313 313 312 312 309 306 306 305 308
291 289 286 284 288 286 287 289 290 291 289 287 284 285 288 292 293 292 289 289 290 291 292 293 293 294 293 293 295 296 296 297 298 300 303 306 309 312 315 317 319 321 321 322 322 322 323 323 324 324 324 324 326 327 325 328 327 325 321 319 322 325 324 321 326 326 328 328 328 328 327 327 327 327 327 325 324 323 321 318 317 316 316 313 313 313 310 312 312 312 312 311 309 304 303 308 308
291 290 287 286 287 288 287 287 288 289 289 287 286 286 285 289 291 291 290 290 290 292 290 290 291 293 295 295 294 294 296 297 298 298 299 302 305 309 313 315 318 318 320 321 322 323 324 323 324 324 324 324 325 325 325 326 322 319 318 314 315 316 315 321 324 325 327 326 327 327 327 327 327 327 327 326 324 324 321 319 318 317 317 313 313 313 312 313 314 313 312 309 308 310 307 306 305
289 291 290 290 290 288 288 289 289 287 287 290 290 282 284 285 288 289 292 289 288 290 290 292 292 293 293 293 295 296 296 297 297 298 298 300 304 307 311 313 315 317 319 321 323 323 323 324 324 324 324 324 324 324 325 324 323 324 320 321 320 321 322 320 321 322 323 324 325 327 327 327 327 327 326 325 324 322 321 320 320 319 316 313 313 315 315 313 312 310 310 311 311 311 312 307 305
287 288 292 292 291 290 289 288 288 282 282 288 288 284 279 283 287 288 287 286 289 290 289 292 293 293 293 294 295 296 296 296 295 296 296 297 299 303 308 312 315 316 318 320 321 323 323 323 323 324 324 324 324 323 324 322 323 323 322 324 324 323 323 323 325 322 326 326 326 326 327 327 327 327 325 325 324 322 322 321 320 319 317 315 314 315 313 312 312 311 311 312 312 311 309 308 307
286 292 293 292 291 289 289 289 288 285 287 288 287 284 280 282 288 286 283 284 286 288 289 290 291 292 293 294 295 296 297 296 296 296 296 297 298 301 305 310 314 316 317 318 319 321 322 322 323 323 324 323 324 323 322 323 323 323 322 322 322 322 322 323 321 317 316 320 324 326 326 326 326 327 326 325 325 323 322 322 321 319 318 317 314 314 314 313 312 311 312 312 311 310 309 309 308
289 292 293 291 291 291 290 289 286 285 285 283 284 285 281 278 282 285 285 286 284 287 288 290 292 292 293 294 296 296 297 297 297 297 296 297 298 299 302 306 312 315 315 317 318 319 321 322 321 322 323 322 322 321 321 321 322 324 323 322 321 321 322 319 309 310 317 318 323 324 325 325 325 326 326 325 324 323 321 322 320 319 318 317 313 315 314 314 314 312 310 309 309 308 307 308 308
291 294 294 293 293 291 291 286 287 285 283 281 284 283 280 278 279 283 284 284 284 286 288 290 291 293 293 294 295 296 296 296 295 296 297 297 297 298 299 302 306 311 314 315 316 316 318 319 319 319 321 322 321 320 320 320 321 321 322 322 321 320 317 311 310 312 315 317 321 322 324 323 323 323 323 324 323 323 322 321 321 320 319 318 313 316 315 313 313 312 311 310 309 308 308 308 308
295 294 292 291 290 287 284 285 285 284 279 282 284 283 281 277 281 285 285 285 286 288 288 287 289 290 291 293 295 297 297 295 295 294 294 294 294 295 295 299 302 304 308 310 312 313 315 317 318 318 320 321 319 320 319 320 320 321 321 321 321 320 317 314 311 310 313 315 319 320 321 322 322 322 322 321 322 322 321 320 321 320 318 314 314 315 314 313 312 312 311 310 309 309 307 307 306
294 291 288 288 286 286 286 284 284 279 278 281 282 281 281 277 278 282 285 284 283 289 289 291 290 291 292 292 293 293 293 293 293 293 293 293 292 293 293 296 298 302 304 308 310 310 311 314 316 317 317 318 318 319 318 319 320 320 320 321 320 320 318 315 315 315 313 315 317 318 318 319 319 320 320 320 320 321 320 320 318 320 317 317 316 315 315 313 310 309 309 309 308 306 305 304 304
292 290 289 284 280 282 277 281 278 279 277 281 279 281 281 281 283 284 284 285 286 285 288 291 290 289 290 289 290 292 292 291 293 293 294 293 294 295 295 296 296 299 304 307 309 310 311 312 314 315 316 317 317 318 318 318 319 319 320 320 320 320 319 317 316 316 314 314 315 315 316 317 317 317 318 319 319 320 319 319 318 318 317 316 315 314 312 311 310 309 308 306 306 305 304 303 303
289 288 286 283 278 277 275 276 273 274 279 280 281 282 280 281 282 289 291 293 292 291 289 289 288 290 291 291 290 291 292 291 292 293 294 294 295 295 296 296 297 298 300 304 306 308 309 311 312 314 316 316 316 317 318 318 318 319 319 320 320 319 318 317 316 317 315 314 313 315 316 318 317 318 318 319 319 319 318 319 317 317 317 315 314 314 312 310 309 307 304 304 303 303 300 299 298
288 291 289 285 282 276 274 275 276 277 279 279 281 280 278 280 283 287 294 295 296 292 287 288 288 289 290 289 290 292 293 293 293 292 293 294 295 295 296 297 297 298 298 300 303 305 307 309 310 311 313 314 314 316 317 317 318 318 319 320 320 319 318 317 317 316 314 313 312 313 314 316 317 318 319 318 316 318 317 316 316 316 313 313 311 311 309 308 307 304 302 303 302 300 298 297 297
287 288 290 285 285 283 278 277 277 275 276 276 277 280 281 284 285 287 288 288 289 290 289 288 290 290 289 290 293 294 295 295 293 293 294 293 293 292 294 295 296 296 296 297 299 301 304 307 309 311 313 314 314 313 316 317 318 318 317 318 318 316 314 315 313 311 312 313 312 313 312 313 315 314 312 314 315 316 315 314 312 313 311 311 309 309 307 306 304 305 302 302 303 302 301 300 301
285 286 284 286 289 287 280 278 280 278 276 277 276 278 281 282 288 292 288 287 289 289 290 288 289 289 288 290 292 293 295 295 294 294 295 294 293 292 293 292 293 294 295 297 299 300 302 304 306 308 309 310 311 311 314 315 316 315 315 316 316 314 314 314 314 311 311 310 311 312 312 311 309 310 310 310 311 312 313 312 310 308 307 308 307 307 307 306 304 304 303 303 303 300 301 302 301
286 283 286 288 290 287 284 278 275 275 274 275 274 279 278 279 280 285 286 286 290 290 290 290 288 288 289 292 293 294 295 296 294 293 293 292 292 293 293 292 293 295 296 296 298 298 300 302 304 305 306 308 309 310 312 313 313 313 313 313 314 315 315 314 313 312 309 309 308 308 306 306 308 308 309 307 308 308 308 305 309 306 305 305 306 305 305 304 304 303 304 304 303 301 301 298 298
289 287 291 288 281 281 280 278 273 272 273 271 274 275 276 278 283 281 284 287 291 291 290 288 289 289 290 292 293 292 291 292 293 294 294 293 293 294 294 294 294 295 296 297 297 297 297 297 300 303 305 307 307 308 309 311 312 313 314 313 314 314 313 313 312 310 308 309 308 308 308 309 306 305 305 305 305 305 304 302 303 302 301 303 304 304 303 303 303 302 300 301 298 299 299 298 295
289 289 286 285 285 282 280 280 277 277 274 272 274 276 279 281 282 283 287 286 288 290 289 289 291 292 292 292 293 294 292 292 293 294 294 293 293 293 295 296 295 295 295 296 296 296 297 299 298 299 300 301 302 304 306 308 309 310 311 310 310 312 311 312 310 309 308 309 308 308 308 305 306 304 305 304 303 303 301 300 298 299 299 300 301 300 301 301 300 301 299 298 297 298 298 297 295
284 284 284 285 284 284 283 282 280 279 270 270 271 273 279 280 284 288 290 292 289 289 290 291 291 290 290 291 292 293 292 292 292 292 292 292 293 293 293 293 294 292 293 294 296 298 299 298 299 300 303 302 303 305 306 308 309 309 308 308 309 309 308 308 307 308 308 308 308 306 307 307 302 303 302 301 300 300 300 298 297 297 299 298 299 298 298 299 299 299 298 299 297 298 298 295 295
288 288 285 287 283 280 281 279 280 277 278 273 270 277 280 284 288 291 291 294 293 290 291 292 291 290 290 291 291 291 292 291 290 290 290 292 292 292 290 290 290 290 291 294 296 296 297 298 301 301 302 304 304 305 306 307 306 307 307 307 306 304 306 305 306 306 306 306 305 305 303 299 302 300 300 300 299 298 297 297 297 297 297 297 297 299 296 298 299 298 297 298 297 297 297 295 294
Wind_Speed
7 4 2 1 3 3 2 6 0 3 2 1 1 0 2 0 1 1 3 0 2 1 1 1 5 5 2 4 7 4 0 8 6 8 4 1 1 6 6 8 8 8 8 6 5 4 4 7 10 9 9 7 10 9 11 10 9 11 12 11 10 10 10 10 12 13 12 11 12 13 15 14 14 13 14 15 15 16 16 16 16 16 16 16 16 17 17 16 17 16 16 16 17 17 17 17 17
4 3 2 0 1 3 1 2 3 3 5 3 3 1 2 1 1 4 7 3 2 1 2 7 9 10 10 11 9 4 3 2 2 0 1 1 6 4 6 10 10 11 8 6 5 4 4 4 9 10 9 9 9 10 11 11 8 11 11 11 10 11 10 9 11 11 12 11 12 12 13 14 14 13 14 14 15 15 16 15 16 17 17 17 16 17 17 17 16 16 16 17 17 17 17 17 17
3 5 1 3 3 4 1 4 2 1 2 1 4 5 2 3 3 4 5 3 5 8 5 7 6 3 2 2 2 1 1 2 3 1 2 6 11 6 7 9 8 8 9 5 5 5 4 5 8 9 9 11 11 10 11 10 9 9 12 11 10 10 11 11 11 12 11 10 12 12 12 14 14 13 14 15 15 15 15 15 15 15 16 16 16 17 17 16 17 17 16 17 17 16 16 16 16
1 4 1 3 2 4 1 3 4 4 0 3 3 3 2 5 5 5 3 3 8 6 2 0 3 2 1 3 1 2 2 2 1 5 6 8 3 8 8 8 7 6 6 5 5 5 4 6 8 9 9 8 11 10 10 10 9 6 11 11 10 9 9 8 12 11 11 10 11 11 13 14 14 14 14 15 15 15 14 15 15 15 16 16 16 16 16 16 17 17 16 16 16 16 16 16 16
1 2 2 4 3 1 1 0 2 2 1 4 1 3 3 4 5 4 2 2 2 0 0 2 4 4 0 4 1 0 4 1 4 2 3 1 6 8 8 8 8 7 6 5 5 5 4 8 8 8 9 9 8 10 11 11 10 7 10 12 11 10 9 9 10 11 11 11 12 12 13 13 14 14 15 15 15 15 14 15 15 15 15 16 16 16 16 17 16 17 16 16 16 16 16 16 16
3 2 4 2 0 2 5 1 0 2 5 5 0 2 5 7 6 6 5 3 4 3 3 2 4 4 1 1 2 1 2 3 4 1 4 4 10 9 9 8 8 7 5 4 5 4 4 8 8 8 10 9 9 11 11 11 11 7 9 12 11 10 10 8 9 10 12 12 11 12 12 13 13 14 14 14 14 15 15 15 15 14 14 15 15 15 16 16 16 17 16 16 16 16 16 16 16
1 4 5 4 2 4 4 1 2 3 6 6 2 2 6 5 6 7 3 0 2 0 1 2 5 5 4 1 1 0 1 1 4 3 4 6 10 10 9 8 9 8 5 5 4 4 5 9 8 8 9 9 10 11 11 11 11 8 8 11 12 11 10 9 10 10 10 12 11 12 12 13 14 14 14 14 13 13 14 14 14 15 14 14 14 14 15 16 16 16 16 16 16 16 15 15 15
2 2 1 1 1 2 0 1 3 5 3 5 2 2 5 7 5 5 6 3 3 2 1 3 2 5 1 3 3 2 4 1 2 6 9 10 10 10 9 8 9 9 6 4 4 3 7 9 8 8 9 10 9 10 11 11 11 8 9 11 12 12 10 9 9 11 9 12 12 13 13 13 13 13 13 12 12 12 13 13 13 13 14 14 13 13 14 16 16 16 16 17 17 15 15 15 14
4 5 0 4 1 2 2 2 3 3 6 2 6 5 6 7 7 7 5 1 1 0 4 4 2 5 3 2 1 2 2 1 5 10 11 11 11 10 8 9 10 8 7 4 3 3 4 7 9 8 8 9 9 10 10 11 11 10 11 11 12 11 10 9 8 10 11 9 11 12 12 13 13 13 12 12 12 12 12 13 13 13 13 13 13 13 14 14 14 15 16 16 16 16 15 15 14
2 1 1 2 3 2 2 3 0 3 3 2 3 4 8 5 5 2 6 2 3 5 3 1 1 1 4 3 1 1 1 2 10 10 10 11 11 9 8 9 9 12 9 6 4 3 3 8 9 8 8 7 6 8 11 11 11 11 10 10 10 10 10 10 9 10 10 10 11 11 11 11 11 11 11 11 12 12 12 12 12 12 13 13 12 12 13 13 13 14 15 16 15 14 14 14 14
0 5 2 2 1 1 3 4 4 6 2 4 2 1 2 4 4 3 1 2 2 5 1 2 3 5 4 1 2 2 1 4 13 12 10 11 10 9 8 7 8 10 10 8 5 4 3 4 9 8 7 7 6 6 6 7 10 10 9 8 9 10 10 10 10 10 9 10 11 10 9 11 11 11 11 11 11 12 12 12 12 12 12 12 12 12 12 12 12 13 14 15 14 13 13 12 13
0 1 1 2 3 6 4 3 2 7 7 2 1 1 2 5 2 2 3 7 4 1 5 6 4 6 3 1 1 1 3 5 12 10 10 10 9 9 8 6 8 8 8 8 5 4 3 4 5 7 7 7 6 7 6 6 7 9 9 9 8 8 9 10 9 10 10 11 10 11 12 12 12 11 11 11 9 9 11 11 11 12 12 11 12 11 11 11 12 12 12 13 14 14 13 12 12
2 2 5 3 3 1 1 0 2 3 3 4 3 1 3 5 5 4 3 2 4 6 3 6 7 2 3 3 2 1 5 8 7 10 10 10 8 7 7 7 8 8 7 6 7 6 5 4 4 4 5 7 6 7 6 6 7 7 8 9 8 7 6 8 8 8 9 9 10 10 11 11 11 10 10 9 7 8 10 9 10 11 11 11 11 11 11 11 11 10 11 11 12 13 14 13 12
3 5 6 4 2 3 4 2 1 0 4 2 2 1 5 4 4 4 4 5 5 6 2 6 6 5 2 1 1 3 7 6 8 10 9 9 7 8 8 7 8 8 6 8 8 7 6 4 4 4 5 4 3 5 6 7 6 7 7 7 6 5 5 8 8 8 9 10 9 7 8 9 10 9 9 8 7 7 7 7 8 9 10 10 10 10 10 10 10 9 9 10 11 12 13 13 13
0 1 4 3 1 2 2 3 4 3 5 2 2 5 3 4 2 5 7 6 6 2 1 1 4 3 5 8 4 9 9 8 9 8 9 8 9 8 8 7 7 7 7 7 7 7 7 6 4 4 4 4 4 3 3 4 7 7 7 7 6 6 7 7 7 8 9 9 8 8 8 9 9 9 8 8 7 8 8 7 7 7 9 9 9 9 9 9 8 8 8 9 9 10 11 11 12
3 4 3 2 2 3 4 2 1 2 6 4 1 4 5 1 2 5 5 3 2 2 1 4 1 1 2 10 5 13 11 9 9 9 10 10 9 8 8 8 7 7 7 7 8 7 6 7 5 5 5 5 4 3 3 3 6 7 7 7 7 7 7 7 8 8 9 9 9 8 9 7 7 6 8 6 8 7 7 5 6 6 7 9 9 8 8 8 7 7 7 8 9 9 9 9 9
2 2 0 2 4 3 3 3 6 3 4 3 2 5 7 5 0 1 1 1 6 2 1 1 1 1 4 3 2 12 10 10 9 11 11 10 9 8 7 6 7 8 7 7 7 7 7 7 7 6 6 6 5 4 3 3 4 7 6 7 8 7 8 8 7 8 7 8 7 7 7 5 4 3 4 4 6 4 6 7 7 7 7 6 7 8 7 7 6 6 6 7 8 8 7 8 8
0 2 4 1 4 4 5 6 7 2 1 1 4 6 6 4 2 2 2 4 2 1 1 4 2 1 2 3 2 12 12 13 12 14 12 11 9 9 9 7 8 8 8 8 8 8 8 7 7 7 6 7 6 5 3 3 3 5 4 4 4 5 6 6 5 4 5 4 6 5 4 4 4 3 3 4 3 4 5 7 7 6 6 5 6 7 7 5 5 5 6 7 8 8 7 5 5
2 2 2 8 5 5 5 4 6 2 2 3 3 3 8 10 9 4 5 3 3 2 1 2 1 3 3 3 9 13 13 13 13 14 15 14 12 14 11 9 9 10 10 8 8 11 8 7 7 8 6 7 8 6 4 4 4 4 3 3 4 4 4 4 4 4 3 4 3 3 3 3 3 3 3 3 3 4 4 7 7 7 6 7 7 6 6 5 5 5 6 7 8 8 5 4 4
2 3 4 5 6 4 5 3 4 6 1 1 3 2 2 2 5 1 4 6 2 9 7 1 4 3 2 5 10 12 12 14 12 13 15 14 13 12 12 12 10 11 10 8 8 8 8 8 9 8 8 7 7 7 5 5 4 4 3 3 4 4 4 3 3 3 3 3 3 3 3 3 3 3 4 5 5 3 4 5 6 7 7 6 7 5 5 6 5 6 6 5 4 3 4 5 5
1 2 3 4 3 1 3 5 6 4 3 1 4 1 2 3 3 4 3 5 6 7 7 13 14 8 8 10 12 12 13 14 12 11 12 14 12 11 13 12 11 9 8 7 7 9 11 9 9 8 8 10 9 7 6 5 4 4 4 3 4 4 3 3 4 4 3 3 3 3 3 3 3 3 4 3 3 3 3 3 3 3 3 3 3 3 2 2 3 3 2 3 3 3 4 4 4
2 5 3 2 1 2 5 4 4 1 3 3 3 6 8 1 0 3 10 11 10 13 14 9 5 11 14 13 13 12 14 15 14 13 14 16 16 14 10 9 6 7 7 9 10 9 10 10 9 8 9 10 8 7 8 6 6 5 5 5 4 3 4 4 4 4 4 4 3 3 4 4 3 3 3 3 3 3 4 3 2 2 2 2 1 2 1 1 2 2 1 2 2 2 2 2 3
4 1 2 4 3 2 2 1 3 4 2 4 4 5 4 7 2 4 8 13 6 1 3 8 8 13 14 15 14 13 13 15 16 16 15 15 15 14 12 10 10 10 8 9 8 8 9 10 9 8 9 9 9 7 5 6 7 6 6 5 5 5 4 4 4 4 4 3 3 3 4 4 3 3 3 3 4 2 3 3 3 2 2 2 0 1 1 1 1 1 1 1 1 2 3 3 3
1 5 0 5 3 5 5 2 3 2 8 5 3 0 6 5 7 1 6 10 1 3 4 8 6 5 8 13 14 18 18 18 19 16 15 16 17 16 13 12 10 8 8 9 9 9 9 11 10 9 9 9 8 8 7 8 7 6 6 6 5 5 5 5 5 5 4 5 4 4 3 4 4 4 3 4 4 2 3 3 2 2 1 2 1 1 1 0 0 1 1 0 1 1 3 3 2
4 4 1 3 2 3 5 5 3 1 5 1 5 4 8 11 6 4 9 11 3 2 2 8 9 8 9 12 15 14 15 15 15 13 8 7 9 9 8 8 9 9 11 10 9 9 10 10 11 11 10 10 8 8 9 7 6 6 6 6 6 5 5 5 5 4 4 4 4 4 3 4 3 4 4 4 2 4 3 3 3 3 2 2 2 1 1 1 1 0 1 0 0 1 1 3 2
3 2 4 4 3 6 5 5 4 1 1 2 3 6 4 3 1 4 9 6 2 2 5 8 9 10 11 13 15 14 13 15 14 13 14 9 8 10 10 10 10 12 13 11 10 9 9 10 11 12 11 10 9 9 7 7 7 7 7 8 7 5 6 6 4 5 5 5 5 4 5 5 5 5 5 3 4 4 3 2 3 3 3 2 2 3 3 2 2 1 1 1 1 2 2 3 1
4 7 3 3 3 3 2 2 4 2 2 4 5 5 4 1 2 9 3 6 7 5 6 6 11 13 12 11 12 12 14 15 16 13 9 7 8 11 11 10 11 12 10 11 10 9 8 10 10 11 10 10 9 9 8 8 7 8 7 7 6 6 6 5 5 5 5 5 5 5 5 5 5 5 5 5 4 4 3 3 5 3 3 3 4 4 2 3 2 3 3 3 3 2 3 2 1
4 4 3 1 4 1 3 4 6 3 2 5 7 6 1 1 0 11 2 2 8 10 7 8 8 11 12 11 12 11 11 12 10 10 16 13 12 11 12 12 12 10 12 12 10 8 8 11 11 11 10 10 10 10 9 8 8 8 8 7 7 7 6 6 5 5 5 5 4 5 5 6 6 5 5 5 5 5 4 5 4 4 5 4 4 4 3 3 3 2 1 1 1 0 2 2 1
4 4 3 3 3 2 2 2 2 0 3 3 3 1 2 2 6 12 3 4 4 9 10 9 11 10 10 10 10 9 12 10 8 10 13 13 11 11 14 11 11 11 8 9 9 9 11 10 10 10 10 10 11 11 9 8 8 8 8 8 7 7 7 6 6 6 6 5 5 6 6 6 6 6 6 6 5 5 5 5 5 5 5 4 4 4 3 2 2 2 2 0 1 1 2 5 2
1 2 0 4 2 5 7 2 1 1 2 3 2 6 5 9 14 4 3 7 4 5 6 9 9 9 8 8 9 9 8 7 10 12 11 11 11 11 12 11 11 11 9 7 8 11 9 7 8 8 10 11 12 10 9 8 8 8 7 7 7 8 7 7 7 6 6 5 5 6 6 6 6 6 6 6 5 5 5 5 5 5 5 4 3 3 4 4 4 3 4 1 3 2 4 5 3
4 1 2 2 1 6 1 3 4 5 1 4 1 7 6 7 13 5 4 6 11 9 8 8 9 9 8 8 9 10 11 11 13 13 12 13 11 10 12 11 11 10 7 8 11 11 9 9 8 8 10 11 11 11 10 9 8 8 8 7 7 8 7 7 7 6 6 6 5 6 6 6 6 7 6 7 6 6 6 5 5 6 3 3 4 5 5 3 3 5 3 3 2 2 3 3 3
0 3 9 2 6 3 3 1 5 8 0 1 4 6 9 9 10 3 4 7 6 9 9 10 9 9 9 9 10 10 11 10 11 11 13 13 11 11 12 12 11 10 11 11 10 9 10 9 10 10 10 12 12 12 10 9 9 8 8 8 8 8 7 8 7 7 7 7 7 7 7 7 6 6 6 6 6 6 6 6 7 4 4 3 3 3 3 4 5 4 4 3 3 5 3 4 2
1 9 2 9 2 2 4 2 5 2 2 0 8 6 2 9 9 3 3 8 9 9 7 8 10 10 9 10 10 10 9 8 9 12 13 12 11 10 10 11 12 12 11 11 11 9 10 10 11 12 12 13 12 12 10 9 8 9 9 8 9 8 8 8 7 7 7 8 7 7 7 7 7 6 6 6 6 6 6 6 6 5 4 5 5 5 5 5 5 5 3 3 4 4 3 4 5
8 2 6 1 4 2 7 2 2 3 2 5 3 5 6 6 3 3 1 6 8 9 10 9 9 9 10 9 9 10 10 10 13 14 15 13 11 12 11 11 12 12 12 12 11 12 13 11 11 12 11 12 11 11 11 10 8 8 8 8 8 9 9 8 6 6 8 8 8 8 7 8 8 7 6 6 6 6 6 6 4 5 5 5 5 5 6 4 4 5 5 3 4 3 4 4 5
8 7 5 7 4 5 6 5 3 8 1 3 3 6 11 15 11 6 2 4 7 12 13 10 9 9 9 9 10 11 11 12 15 14 14 13 13 13 12 12 12 12 11 12 11 11 10 10 10 11 11 11 11 11 10 9 8 7 7 8 8 9 8 8 7 7 7 7 8 8 8 7 7 6 6 6 6 6 5 5 4 4 5 5 5 5 5 4 4 4 5 4 3 4 4 3 4
9 9 6 3 8 9 6 4 2 10 6 7 7 8 11 14 14 13 4 5 9 10 3 3 5 7 7 8 9 10 12 15 14 10 10 11 12 12 12 11 11 11 11 11 12 11 12 11 10 10 11 11 9 8 8 8 7 8 8 6 8 9 9 8 8 8 7 8 8 8 8 8 7 7 6 6 6 6 5 5 6 4 5 5 5 5 5 6 5 4 5 4 4 3 3 3 3
6 4 2 6 6 6 5 3 4 3 2 10 10 8 9 14 14 15 5 4 4 5 7 8 7 8 9 9 10 12 13 17 11 10 9 11 12 12 11 10 11 11 11 12 12 13 13 13 11 14 12 11 10 10 10 10 10 9 9 11 12 9 8 7 8 8 8 7 7 8 8 8 7 7 7 6 6 6 6 5 5 4 5 5 5 7 7 5 6 7 4 3 4 3 3 2 1
6 5 3 5 3 6 4 4 2 2 5 5 6 6 12 17 14 10 2 5 7 9 11 11 12 10 10 11 12 13 15 6 5 6 7 7 11 12 10 10 9 12 13 12 14 14 13 12 14 14 11 11 12 12 11 11 11 11 11 10 8 8 8 9 9 7 8 7 8 8 8 8 8 8 8 7 7 7 6 5 5 6 6 6 6 5 3 5 5 4 3 1 1 4 3 2 3
2 4 3 1 6 1 9 10 6 2 3 9 1 6 10 12 16 10 4 7 6 8 10 14 14 10 8 9 11 13 7 10 8 8 6 9 10 11 11 12 12 14 12 14 14 13 14 14 14 13 12 12 12 12 11 12 11 9 10 7 9 5 4 6 6 5 6 7 8 9 9 9 9 9 8 8 7 7 7 6 6 6 6 6 5 5 5 5 5 6 5 5 3 1 3 2 4
5 3 5 8 2 2 8 3 1 2 3 2 3 6 7 8 13 12 6 6 7 7 8 10 6 9 10 12 14 12 11 12 14 13 12 10 11 12 12 12 13 11 13 13 12 14 12 13 12 12 11 11 12 13 13 11 10 7 5 4 6 8 6 5 5 4 7 8 10 9 9 9 9 9 8 8 7 7 7 7 6 5 6 6 7 7 5 6 5 5 5 6 4 3 3 5 5
5 5 3 2 4 2 2 3 4 3 2 2 1 3 6 6 12 11 6 8 6 7 6 6 6 8 10 8 5 6 13 15 15 11 9 8 9 12 15 15 12 14 14 14 14 14 12 14 13 13 12 13 12 12 12 9 7 5 5 3 3 3 1 5 6 8 10 9 8 9 10 8 8 9 8 8 8 8 7 6 6 7 6 6 6 6 6 8 7 6 6 5 6 6 4 4 1
7 6 6 3 2 6 6 6 6 2 3 3 3 4 10 4 9 13 8 0 5 7 8 11 11 10 8 9 12 10 10 10 13 15 14 13 14 13 11 11 13 14 15 16 14 15 13 13 12 12 11 11 12 11 12 10 10 11 9 9 9 9 10 8 12 15 11 10 13 6 6 9 9 8 8 8 8 7 7 7 7 6 6 6 7 7 7 6 6 6 8 7 6 6 6 3 2
8 8 9 6 7 4 5 7 2 3 6 4 1 10 8 5 7 8 7 6 11 6 7 13 11 9 8 10 11 12 13 13 11 10 7 7 11 8 10 13 16 16 17 12 11 13 14 12 12 13 13 11 11 11 11 11 10 11 13 14 13 13 12 11 10 6 8 8 5 7 8 7 9 9 8 8 7 8 8 7 7 7 7 6 7 6 5 6 7 7 4 5 7 5 3 4 5
8 5 14 10 5 5 6 6 6 7 2 4 0 3 7 7 10 3 3 3 7 9 9 10 10 9 11 11 13 13 14 13 12 14 13 12 11 13 16 17 15 17 13 9 13 12 13 15 14 15 12 11 11 11 11 13 13 11 12 13 13 12 13 13 9 6 4 4 7 8 7 7 8 8 8 8 8 8 7 7 7 7 7 7 6 6 6 5 4 3 6 5 3 5 6 6 6
2 5 11 9 10 10 7 3 5 3 2 8 2 1 3 6 8 4 0 2 6 11 11 11 12 12 13 14 15 15 15 14 13 13 13 15 15 14 14 13 15 12 10 13 13 12 12 12 12 11 13 12 9 10 11 11 12 13 13 12 12 10 10 8 4 5 5 6 8 7 7 7 7 8 8 8 8 7 7 7 7 6 6 6 6 5 5 5 6 5 4 4 6 5 5 4 3
3 6 4 2 3 1 3 5 4 2 2 10 8 4 5 8 5 5 1 2 6 7 10 11 13 14 15 15 14 15 13 10 9 12 12 11 11 11 11 9 6 12 11 10 9 9 9 10 11 12 13 10 10 10 11 12 13 11 12 12 14 11 7 5 5 6 6 6 8 8 8 7 7 7 7 7 7 7 8 7 7 7 7 6 6 6 6 5 4 4 5 6 5 5 4 4 5
4 7 5 2 2 2 1 2 3 1 7 13 6 4 5 7 6 10 7 7 8 9 7 6 6 8 10 11 13 14 13 10 9 9 9 9 7 7 6 9 10 6 6 6 8 9 9 10 12 14 14 11 10 11 11 13 12 12 13 13 14 13 10 8 6 6 6 7 9 9 8 7 6 7 6 6 7 7 7 7 7 7 6 6 7 6 5 6 5 5 5 4 4 5 5 5 4
9 3 5 3 2 0 1 1 1 4 10 2 3 2 1 9 4 6 7 5 5 9 9 10 9 11 11 7 8 9 8 7 8 7 9 10 7 6 5 8 8 7 5 8 9 7 8 10 11 13 12 12 10 11 11 12 12 13 12 12 13 12 11 10 12 11 10 10 9 8 6 5 6 6 6 6 7 7 7 6 6 6 6 6 6 6 6 5 5 4 5 5 4 3 3 3 3
6 7 8 8 3 4 4 2 7 11 6 0 2 3 1 15 7 7 7 8 9 7 9 11 9 6 7 6 8 7 6 6 8 9 9 7 10 10 9 9 6 7 11 11 11 11 10 10 12 14 15 12 12 11 13 13 13 14 13 13 12 11 12 12 12 11 9 9 8 7 8 8 6 7 7 8 8 9 7 6 6 6 6 6 5 5 4 4 5 5 5 5 4 5 5 5 4
9 11 10 8 7 7 9 5 2 4 4 3 1 2 6 2 5 12 16 14 12 13 11 9 7 10 9 8 5 4 6 6 8 8 8 8 10 9 9 9 10 10 10 11 10 10 10 11 12 14 15 12 11 12 13 13 14 14 12 13 12 11 12 11 11 11 9 8 7 9 9 9 8 10 9 9 8 8 7 7 8 6 6 6 5 5 6 7 6 5 5 5 5 5 4 5 5
9 1 5 6 4 4 7 5 11 6 6 1 2 2 8 5 6 8 16 14 13 7 4 6 8 9 8 6 7 7 6 6 6 7 9 10 11 10 10 10 10 10 9 9 8 10 9 10 11 13 11 11 12 14 12 15 14 13 12 12 12 10 11 10 10 9 8 8 7 8 8 7 8 8 9 7 7 8 7 6 7 7 6 6 5 5 5 5 5 6 4 5 4 5 5 5 4
5 5 2 5 13 5 3 4 3 2 2 2 2 7 2 4 3 8 7 8 9 8 7 5 11 8 5 8 10 10 7 7 5 6 8 9 7 5 5 5 6 6 6 6 7 8 9 11 11 13 15 14 13 13 13 13 12 10 11 12 12 10 8 8 7 7 7 8 9 9 9 9 8 7 5 7 7 8 8 7 6 7 6 6 6 5 5 6 4 5 4 4 5 4 5 5 5
6 6 12 9 4 4 2 2 0 2 2 10 2 6 7 6 10 12 3 5 9 7 9 6 9 6 4 8 9 8 8 6 6 7 8 6 4 4 5 4 4 4 5 7 9 9 11 10 9 10 10 7 9 10 11 10 10 9 10 10 9 9 10 11 10 9 9 8 8 8 8 8 7 7 7 6 8 6 7 7 7 6 5 5 5 5 5 5 5 5 5 5 5 3 4 5 4
7 9 8 2 1 3 4 5 1 2 7 7 3 10 4 1 8 5 6 4 11 8 9 7 6 4 5 9 8 9 8 7 5 5 5 5 4 4 3 3 4 5 5 5 7 6 7 8 8 9 8 10 9 9 10 10 10 10 9 10 10 11 11 10 9 9 8 8 7 6 5 6 8 8 8 7 7 8 6 6 6 5 4 5 6 5 5 6 6 5 5 6 5 5 5 3 4
9 9 5 10 6 10 2 2 6 5 6 4 3 2 4 9 10 3 3 9 13 11 5 4 6 6 8 9 10 8 5 5 7 7 6 6 6 5 4 5 4 5 5 6 5 5 5 6 6 7 9 9 8 7 7 7 8 8 9 10 11 10 8 8 8 7 7 9 9 8 8 8 6 6 7 7 7 7 6 5 5 5 6 6 6 6 6 6 6 6 5 5 4 5 5 4 3
0 3 4 1 1 3 5 8 2 4 7 1 7 2 12 8 7 7 8 7 10 9 6 6 8 9 8 8 8 8 6 6 7 6 6 5 5 5 5 6 6 7 6 5 5 4 5 5 5 5 4 4 5 6 6 7 7 7 7 6 6 7 8 9 8 9 8 9 9 9 8 6 8 7 7 7 7 7 7 6 5 6 6 6 6 6 6 6 6 6 6 5 5 5 5 5 3
3 4 6 2 1 1 3 0 5 5 4 4 2 5 9 6 8 10 11 13 10 9 8 7 8 7 7 7 8 7 6 6 5 5 5 5 5 5 5 4 4 3 4 4 5 6 6 5 5 6 7 6 6 7 7 8 8 8 7 8 8 8 8 7 6 7 9 9 8 8 8 8 6 7 7 7 7 7 7 7 7 7 7 7 7 6 6 6 7 6 6 6 6 6 6 4 5
9 10 11 12 10 6 10 13 3 2 3 5 3 14 5 5 8 12 13 13 13 8 8 6 6 7 7 6 6 6 6 5 4 4 5 6 5 4 3 1 1 3 4 5 6 5 5 6 7 7 7 7 8 8 9 7 6 6 7 7 7 5 7 6 8 8 8 7 7 7 7 6 8 7 8 8 8 7 7 7 7 7 7 7 7 8 7 7 7 7 6 6 7 7 7 6 5
Wind_Direction
325 338 321 151 66 89 56 360 133 317 52 287 1 19 201 268 225 86 148 334 106 255 206 46 80 111 182 201 174 152 181 137 196 135 214 234 221 127 120 128 134 131 131 137 139 132 140 145 143 129 132 139 121 117 121 122 130 122 111 104 106 96 90 97 97 91 88 91 92 98 101 95 93 88 87 92 90 90 86 86 86 87 89 88 90 92 93 89 85 83 81 85 88 86 81 80 79
305 327 34 32 56 65 268 108 97 352 38 31 257 100 245 307 69 205 175 183 196 144 135 98 84 86 71 87 117 126 45 358 180 157 46 204 113 105 143 142 146 140 138 136 133 131 137 137 134 139 146 146 130 128 124 130 134 118 115 114 106 98 113 114 97 97 95 89 92 97 99 99 95 91 87 85 89 85 84 85 87 88 87 89 90 92 89 84 84 83 85 87 88 87 86 83 82
324 2 28 32 34 69 73 35 300 73 72 344 275 207 335 138 194 224 239 216 143 131 127 111 116 89 49 46 34 30 213 35 91 189 114 143 138 168 158 145 142 136 133 134 131 132 133 139 138 146 153 138 129 128 128 131 130 121 115 108 111 120 98 96 105 100 98 94 93 96 97 101 100 95 91 91 89 84 83 83 85 87 87 88 94 95 91 81 80 83 87 87 86 86 86 85 84
337 33 125 70 260 34 53 24 93 123 100 215 317 280 182 180 206 206 253 210 148 138 166 56 57 273 113 51 154 106 75 131 168 149 138 169 176 144 151 142 135 128 121 128 132 134 140 149 144 144 141 134 129 129 132 137 130 119 120 115 110 95 100 106 102 105 104 100 90 98 99 97 98 93 88 83 83 86 88 87 88 88 90 95 95 94 87 84 83 83 84 87 86 84 86 87 88
48 327 82 92 104 2 101 113 142 93 242 201 155 276 254 210 188 190 197 213 225 119 314 149 74 340 146 126 134 185 216 95 132 217 124 118 112 146 143 137 134 131 132 134 135 140 153 148 143 142 136 132 133 129 131 136 134 127 124 119 112 107 109 104 95 98 100 102 100 100 101 98 91 89 87 84 82 83 84 85 84 86 92 94 95 96 90 84 83 82 81 86 89 88 87 86 88
41 30 357 82 15 167 55 47 359 212 217 151 166 239 214 206 172 180 172 227 256 267 222 73 155 182 16 315 167 125 176 136 184 177 154 170 142 145 145 138 133 134 136 137 141 144 156 142 137 139 142 140 139 133 132 140 139 135 128 120 114 112 115 116 110 103 97 98 99 98 96 97 95 91 86 85 84 82 83 84 85 86 83 87 94 94 89 86 82 79 76 83 87 87 85 86 87
277 38 356 28 23 53 176 145 234 206 274 161 211 225 201 197 198 142 184 100 245 194 217 166 126 94 72 294 27 210 205 204 122 189 153 151 139 143 143 140 139 135 140 143 146 148 152 143 146 142 140 144 142 135 133 136 143 139 136 124 121 119 118 117 118 116 110 100 101 99 96 95 93 91 89 87 89 89 88 86 85 84 85 85 95 100 90 84 81 79 79 83 84 85 85 87 87
62 138 318 108 249 39 63 191 240 156 269 168 224 198 192 181 163 153 181 126 208 173 2 138 116 101 225 36 163 255 355 201 161 124 124 138 143 144 143 142 144 145 142 148 153 157 153 147 144 137 146 146 144 140 138 139 140 139 129 122 123 125 125 119 122 121 118 117 106 106 106 101 94 93 94 95 93 93 89 89 91 92 90 90 93 99 92 86 84 83 80 81 83 84 85 87 89
359 85 270 76 115 41 54 231 260 239 280 294 276 224 186 169 169 148 164 243 37 156 142 185 221 94 226 60 127 276 312 25 114 122 136 140 148 148 145 149 151 149 147 152 157 164 150 149 139 144 147 147 151 146 140 140 135 128 125 125 128 127 128 123 116 119 119 116 109 105 104 100 101 100 100 103 102 99 102 100 97 94 93 91 95 101 99 91 87 86 84 84 86 87 87 87 88
32 72 270 144 124 229 11 300 113 244 229 249 230 201 168 164 179 160 149 119 193 134 197 46 125 116 147 140 20 1 112 159 120 122 142 148 148 148 150 156 156 152 151 156 165 159 156 149 141 144 145 151 148 148 146 142 138 130 127 125 131 133 134 135 132 124 121 125 122 122 112 109 108 106 104 108 109 106 104 105 103 101 96 94 100 105 104 94 91 89 86 86 85 86 86 87 87
320 19 131 99 30 182 199 261 263 310 272 310 291 241 169 127 132 180 179 164 143 155 201 174 39 125 109 243 198 251 280 178 132 152 153 150 151 152 152 154 156 157 156 159 161 155 157 147 147 145 147 144 145 134 124 129 138 133 124 129 134 142 141 140 138 130 131 124 81 84 115 115 104 102 101 100 102 105 99 98 98 98 97 96 94 99 102 97 94 90 83 85 86 85 85 87 89
340 50 31 106 191 167 230 183 264 275 299 328 244 199 184 134 111 169 203 139 199 165 179 166 196 145 66 107 270 336 112 183 153 154 152 149 155 154 147 147 155 157 157 154 153 152 149 149 144 148 145 143 139 130 126 128 132 132 132 137 143 143 145 146 141 136 140 117 99 99 100 105 107 106 105 107 104 103 106 106 105 100 99 96 96 97 98 97 97 84 74 75 80 82 81 82 85
124 105 85 108 229 156 190 79 254 299 330 279 193 223 142 128 188 201 179 140 161 149 275 212 128 77 133 185 264 293 157 201 159 152 150 154 156 147 140 147 156 152 154 153 155 155 150 148 147 145 146 142 135 131 131 128 126 132 138 139 141 147 152 133 117 130 137 125 106 113 106 103 103 103 99 94 89 102 108 105 108 107 104 102 101 98 98 96 90 75 69 68 75 78 77 78 78
122 181 130 212 65 130 142 209 307 287 277 250 265 138 166 146 241 168 144 148 201 168 261 171 142 132 76 41 289 192 200 183 164 152 149 151 146 143 146 147 150 153 158 158 161 159 154 152 147 143 141 134 130 131 133 134 132 134 136 137 136 143 101 108 108 101 96 97 99 97 97 96 94 91 85 76 73 75 82 89 98 106 107 106 105 101 97 98 90 75 68 64 69 74 77 77 74
235 152 84 112 115 110 243 133 209 155 255 203 205 137 173 248 116 139 174 157 230 222 334 53 169 136 222 154 251 203 183 178 156 150 146 145 143 146 147 147 151 152 161 164 160 161 164 151 152 146 143 134 136 135 136 139 136 134 131 133 134 107 107 107 111 109 109 106 104 102 98 96 92 89 87 85 79 77 74 72 84 101 112 108 107 104 100 89 81 72 66 66 66 70 70 69 70
137 85 83 147 211 171 260 156 80 94 261 186 113 138 145 275 148 140 239 165 217 351 132 196 129 206 167 169 213 179 165 154 151 144 141 144 144 144 146 148 152 160 166 166 166 170 167 160 159 155 150 146 145 144 144 138 138 137 137 135 124 121 119 116 112 112 111 111 109 104 100 95 90 88 85 74 77 76 76 77 85 94 108 110 106 105 101 92 80 71 65 64 62 60 57 54 53
82 83 150 48 223 165 243 161 153 215 245 258 288 150 167 218 229 216 117 125 131 185 12 294 190 28 183 198 248 146 148 138 136 142 142 148 150 146 142 149 154 163 172 175 174 172 172 169 161 161 159 153 148 149 144 142 147 139 135 130 127 130 129 122 115 111 112 113 111 108 101 98 97 93 83 84 78 82 84 78 74 75 78 97 111 110 102 91 81 69 68 63 57 48 42 41 37
81 183 122 179 198 170 208 176 187 209 129 255 206 208 159 211 207 203 113 33 47 14 97 313 329 1 258 265 191 146 140 142 151 149 159 160 160 156 164 163 162 175 176 177 190 180 174 174 171 166 162 154 150 148 148 145 145 137 136 133 131 135 130 122 121 127 123 122 120 113 112 113 109 105 100 95 92 91 87 89 82 82 81 77 89 105 94 84 85 78 62 57 47 46 43 34 19
144 85 132 220 178 237 161 199 196 133 257 214 215 195 179 211 146 207 154 222 153 148 278 359 307 337 24 76 133 140 146 150 159 160 163 169 168 171 159 159 172 171 181 179 186 189 182 177 178 176 164 158 154 148 149 148 146 138 143 142 138 140 141 133 136 132 135 138 132 123 121 123 123 120 123 121 107 100 105 101 97 90 87 81 80 78 89 83 83 69 49 44 37 34 34 19 13
193 130 232 250 212 237 217 197 202 216 120 144 182 251 252 271 159 92 198 180 169 187 191 302 221 224 154 137 146 149 159 162 167 164 170 173 178 175 162 172 175 185 182 180 177 183 180 179 186 181 174 168 160 163 150 153 154 147 151 153 148 152 150 153 150 147 150 151 145 135 129 124 118 119 118 117 108 103 96 92 94 93 87 81 80 63 55 59 50 38 43 44 34 20 28 27 15
275 123 196 236 198 179 255 197 237 228 199 193 171 73 211 267 202 165 158 116 246 250 225 178 198 179 167 163 159 159 167 169 174 173 174 177 182 185 186 182 179 179 180 167 175 186 186 184 186 181 176 180 173 166 158 164 158 156 157 159 162 165 167 164 168 166 165 161 152 143 137 125 121 120 124 113 116 118 108 102 91 94 91 80 73 79 52 24 27 10 20 40 34 18 20 12 13
89 211 207 202 58 219 257 207 218 189 195 121 136 142 220 85 7 179 152 185 210 211 216 221 177 160 158 166 170 164 172 177 180 178 183 180 183 186 184 185 180 174 170 183 188 184 184 185 184 179 179 184 178 172 174 164 155 170 174 174 170 182 179 178 179 182 177 173 164 148 132 122 124 131 136 139 140 140 135 138 129 113 110 120 48 101 61 33 13 12 30 41 16 36 36 3 3
243 305 252 201 201 270 273 202 214 141 102 140 162 216 88 168 232 189 190 200 237 252 153 180 173 171 169 159 158 171 178 184 187 188 184 184 186 188 187 181 181 179 182 191 182 186 182 185 186 178 182 182 182 177 166 161 180 183 183 174 176 191 185 181 192 193 191 178 175 159 149 149 146 150 157 163 175 168 164 168 166 154 156 159 140 136 139 62 53 26 39 47 8 14 348 4 21
218 250 319 284 224 244 249 281 113 170 138 212 197 32 178 167 221 170 193 233 283 304 168 154 143 138 147 157 173 174 183 186 194 193 189 188 185 188 185 182 186 181 186 189 187 186 187 186 183 182 185 183 184 178 172 177 186 177 185 176 193 191 179 195 197 197 186 186 183 177 165 165 164 169 189 184 203 182 194 185 163 169 184 201 168 137 153 84 76 81 109 44 19 5 354 328 356
204 245 280 290 292 256 311 287 296 184 229 194 123 149 222 186 191 96 229 228 279 354 111 125 138 151 165 169 177 186 187 192 193 194 192 198 195 185 185 186 184 183 194 194 188 187 190 185 181 185 187 186 184 178 185 185 181 182 179 184 195 186 194 200 197 184 190 189 186 181 170 172 182 182 189 203 174 207 204 179 180 200 192 218 168 214 161 204 224 193 139 163 48 345 334 303 326
35 281 326 294 318 330 313 316 257 214 263 165 123 234 272 261 27 251 236 238 224 95 120 136 145 158 175 184 183 182 191 194 194 192 195 188 186 184 193 190 187 192 196 190 188 194 187 184 184 186 187 187 185 180 185 185 183 184 187 193 194 185 204 201 183 187 198 179 192 190 190 180 185 188 196 193 183 211 213 199 192 213 209 193 183 214 216 183 220 216 241 219 284 287 292 256 216
349 277 243 238 272 351 355 39 316 303 213 191 186 233 239 317 119 260 254 205 132 126 146 161 158 175 184 188 193 192 188 195 196 194 188 188 191 195 195 194 195 198 187 194 194 193 186 184 188 187 188 185 185 186 186 188 181 188 186 190 189 196 201 194 193 199 198 195 195 187 192 191 185 189 188 189 202 204 205 203 215 204 230 218 197 224 185 202 210 216 212 223 228 256 263 296 307
290 253 260 231 332 351 287 298 271 294 277 178 191 231 246 287 90 238 235 159 158 147 168 172 186 181 187 193 193 196 199 202 198 191 198 189 196 196 196 195 199 195 194 196 193 186 185 193 189 188 189 185 187 190 187 189 187 188 187 187 193 197 191 194 201 199 205 204 194 189 189 192 184 189 186 190 196 197 203 207 219 203 225 219 206 213 201 207 210 242 254 251 259 278 294 309 293
309 311 292 286 350 337 293 230 274 8 266 157 165 263 280 195 221 238 189 141 170 156 173 186 192 195 194 196 196 198 204 198 195 206 210 206 198 197 200 199 195 198 204 194 186 184 193 191 191 191 188 188 193 191 190 193 188 187 188 191 192 193 192 192 200 203 205 206 197 192 194 194 187 184 190 190 195 199 202 206 217 223 228 212 203 213 207 205 221 252 281 343 319 328 325 290 297
209 11 63 311 345 299 252 184 195 130 251 145 152 242 243 234 239 225 156 137 117 144 184 194 198 197 200 198 201 208 209 200 207 210 210 210 208 203 204 200 198 199 193 194 184 194 192 192 190 187 192 193 196 194 190 193 192 188 188 191 192 192 194 192 201 204 204 205 199 199 197 200 195 193 183 195 189 195 202 207 216 229 225 212 200 192 203 200 215 224 240 212 260 259 264 269 299
105 251 28 235 245 253 305 179 158 164 179 166 99 229 270 249 244 202 161 162 159 190 199 198 204 202 199 202 205 209 211 206 207 208 212 214 211 207 207 203 200 200 190 193 197 194 186 192 187 193 190 196 195 198 193 196 192 189 190 192 194 194 194 195 194 198 204 205 198 206 200 200 206 196 191 186 193 193 197 209 219 228 201 186 188 199 191 195 200 218 199 218 263 275 265 279 266
296 81 234 255 206 291 294 147 156 181 206 150 118 253 238 255 261 226 190 171 186 198 198 203 205 207 203 203 211 215 216 212 220 221 218 217 211 210 207 208 200 200 199 199 202 191 193 192 189 194 188 196 198 199 196 195 193 193 193 193 193 196 196 197 190 193 200 205 204 207 203 202 204 205 195 187 188 194 197 205 217 205 187 180 202 184 173 191 209 220 221 196 222 258 257 270 227
280 196 194 225 158 247 320 256 191 213 103 286 179 220 302 274 267 290 255 181 185 202 207 205 210 210 207 208 212 217 219 222 227 225 223 218 218 215 213 210 206 205 202 201 200 195 200 197 192 195 191 197 197 199 197 196 190 195 195 195 197 195 200 205 196 189 196 205 206 208 203 202 205 204 200 192 188 194 204 211 213 191 177 184 186 187 195 203 192 211 227 218 204 235 229 257 281
226 103 199 182 207 159 228 307 225 170 152 211 224 209 232 243 278 303 319 195 183 205 212 211 209 211 211 211 215 218 218 218 219 218 220 214 216 215 213 211 210 206 208 207 201 198 203 198 199 200 197 195 195 196 197 196 195 193 196 198 197 201 205 204 201 192 198 202 204 207 202 204 206 201 193 189 194 197 201 213 203 180 175 180 188 183 211 199 203 194 228 219 201 208 236 243 262
183 180 192 236 248 222 241 190 233 146 213 200 222 221 235 249 268 273 252 186 194 211 212 211 207 210 214 215 217 222 222 222 227 221 217 211 213 214 213 211 211 208 209 207 204 204 205 204 200 203 199 195 196 193 191 193 192 196 197 196 200 206 207 206 198 200 201 198 204 203 202 205 209 202 192 185 190 192 200 212 200 190 177 184 186 201 216 206 208 207 215 228 205 214 227 236 249
186 200 210 194 222 224 221 244 271 178 184 224 202 206 238 256 260 265 226 181 194 229 283 288 230 228 225 220 223 224 226 231 231 223 215 211 214 213 213 211 212 210 207 203 205 204 206 205 202 204 203 196 193 188 181 189 189 194 197 203 208 207 204 203 204 205 194 203 204 201 202 203 205 207 197 190 191 191 194 201 205 183 187 178 190 201 220 213 204 201 233 222 233 238 231 247 238
134 130 116 217 247 268 268 267 259 236 253 222 210 212 226 247 246 248 224 150 200 225 236 238 234 222 218 221 221 226 228 231 227 219 211 208 212 216 217 212 213 211 209 204 205 207 205 202 196 206 201 195 190 187 188 189 193 196 202 204 209 203 203 200 205 205 201 204 198 201 203 205 203 207 205 190 197 193 199 200 190 190 187 188 194 213 215 200 198 202 205 187 216 244 272 244 256
138 146 132 238 222 257 290 294 350 308 197 268 232 225 221 234 249 251 123 155 214 212 219 230 232 221 218 217 226 228 231 255 262 229 207 202 210 214 215 217 211 210 214 206 208 208 205 202 203 206 196 198 196 194 193 195 196 199 199 207 203 198 198 202 209 203 205 197 198 203 205 204 205 207 206 199 198 192 194 194 194 197 187 198 207 219 203 198 188 193 170 206 185 202 248 204 210
116 158 152 250 256 247 282 275 263 301 170 261 287 214 245 247 253 257 182 206 233 215 207 218 220 223 222 221 229 236 238 243 235 234 213 210 208 206 206 213 214 215 212 210 209 206 206 206 209 203 199 196 199 199 194 199 200 201 197 200 194 199 214 208 213 203 193 201 204 205 206 205 205 210 206 203 200 197 197 192 202 201 194 192 201 217 204 201 195 194 182 195 222 228 221 222 192
173 145 176 209 21 125 231 284 357 237 195 288 229 212 265 258 260 260 231 213 243 232 222 239 211 215 219 224 220 223 227 237 236 225 217 209 201 204 205 211 213 208 214 215 209 210 210 213 208 204 203 200 200 202 201 202 198 192 196 171 182 180 189 193 204 204 202 206 212 204 208 207 206 209 206 202 203 203 198 199 200 196 201 193 196 205 202 210 190 197 190 209 182 215 211 235 198
184 186 191 120 227 245 256 294 339 299 317 91 66 311 287 227 255 263 248 235 249 253 250 257 242 226 225 233 261 233 230 229 236 234 227 213 205 208 205 207 202 209 212 211 206 206 208 209 207 203 203 204 205 201 198 190 174 168 155 106 118 125 73 180 200 220 214 210 209 206 208 200 206 209 205 203 199 204 201 201 195 199 200 196 194 200 199 206 199 201 196 198 196 209 231 231 259
212 222 186 209 246 262 284 312 340 331 292 237 210 287 254 247 252 244 256 136 245 247 235 245 239 231 228 232 233 236 239 235 231 231 222 213 211 211 207 204 206 214 214 212 205 206 206 206 201 203 207 207 207 202 193 186 187 183 174 179 184 195 204 195 200 209 201 202 211 199 193 198 203 205 204 204 202 200 199 198 197 195 201 198 198 205 204 194 193 192 203 195 202 210 221 208 239
181 219 168 212 235 264 287 304 334 275 243 291 36 222 267 327 254 243 231 219 235 251 221 242 243 239 232 230 232 232 232 236 238 246 241 224 226 216 214 208 209 210 217 207 204 209 207 203 199 202 205 205 203 199 191 189 191 192 192 198 202 203 209 217 220 218 210 214 195 200 203 195 199 200 202 200 202 201 198 193 195 197 198 199 198 196 195 198 202 205 175 176 202 200 181 231 219
212 134 161 208 222 242 259 251 222 251 289 304 146 195 239 267 259 239 297 266 256 261 250 250 249 243 237 232 232 232 232 228 226 230 229 225 220 207 212 211 209 215 210 193 209 207 203 203 200 203 204 204 200 196 193 193 194 195 198 206 206 208 209 219 209 204 190 180 194 203 196 196 195 199 200 199 200 198 197 195 193 195 192 192 180 194 197 199 193 181 185 197 184 172 184 205 229
172 156 143 172 196 216 227 200 221 237 360 273 284 206 252 242 267 301 287 264 265 251 249 242 243 237 237 237 237 235 233 226 218 225 225 221 219 215 218 214 216 216 202 205 206 202 203 204 204 202 206 203 200 193 193 197 200 198 201 204 211 217 214 217 167 167 179 182 198 197 197 196 193 196 197 194 196 195 195 195 187 181 183 184 179 192 200 186 189 185 177 174 189 198 191 205 200
209 157 145 116 110 122 183 182 193 268 233 248 236 190 227 273 275 300 337 222 253 253 250 239 233 233 230 233 239 241 240 234 226 229 231 229 227 227 222 225 218 215 211 210 209 200 200 197 202 203 210 203 195 195 194 198 202 201 205 206 210 213 207 195 167 179 184 184 202 202 199 193 190 190 194 191 190 194 193 189 182 184 184 182 183 189 184 182 186 188 187 192 190 194 183 177 197
113 116 134 137 114 126 5 109 136 140 247 239 224 253 215 278 234 211 194 218 198 236 265 269 259 254 249 237 233 237 238 231 228 231 235 235 232 232 214 214 222 216 208 205 207 202 196 195 199 203 210 201 196 198 193 201 200 204 209 207 209 211 203 189 184 193 186 186 203 203 198 198 187 193 184 192 188 184 191 188 184 184 182 186 189 179 180 183 186 186 184 171 173 182 176 178 182
138 147 143 134 262 14 157 311 152 205 251 250 206 205 204 231 287 257 241 251 209 206 223 244 242 236 238 239 250 259 257 241 232 230 237 232 244 246 222 225 215 207 191 206 209 200 198 200 197 206 208 203 197 196 195 203 201 207 212 209 210 210 200 196 200 203 195 198 201 199 193 186 196 190 190 193 192 187 186 188 185 180 184 187 189 177 177 182 175 167 160 166 181 170 138 159 171
164 144 174 170 201 163 251 163 217 219 219 246 117 175 323 240 231 278 277 259 251 219 224 236 242 267 265 253 252 255 258 247 230 227 229 225 220 222 219 224 205 199 204 203 203 199 200 199 198 201 208 200 197 193 199 201 202 207 207 207 210 206 204 200 203 207 197 198 193 188 181 196 183 187 195 194 196 187 185 182 183 188 179 185 176 171 168 162 161 161 164 165 160 157 170 169 163
179 181 180 169 172 183 209 211 346 331 288 273 62 115 262 292 287 241 264 271 257 241 228 240 243 250 261 262 254 259 259 248 240 234 232 227 222 221 216 212 207 209 208 204 202 200 202 202 200 202 211 196 197 197 201 202 207 207 204 206 208 201 206 200 204 205 199 196 185 191 189 190 191 197 189 197 184 181 188 188 179 185 178 173 171 175 174 167 158 158 159 159 171 170 146 159 173
195 179 167 186 186 168 201 187 205 216 209 227 286 72 237 143 246 211 222 235 252 267 202 226 239 243 252 270 281 275 269 250 233 238 232 228 226 217 214 211 211 209 204 202 200 205 201 205 201 206 208 202 198 203 202 207 208 206 205 207 207 202 204 201 204 200 190 189 191 189 190 188 194 197 193 186 166 178 182 182 178 171 174 163 154 169 165 149 167 154 154 168 161 156 162 149 168
209 181 85 166 219 120 163 209 153 210 226 286 203 211 185 183 250 289 248 272 281 270 260 251 261 251 251 272 267 263 256 257 233 235 245 242 234 230 227 224 220 214 208 201 206 203 203 209 205 207 207 203 201 201 206 207 209 206 207 205 206 201 201 198 198 191 194 191 188 187 189 191 197 187 185 166 179 174 177 182 174 175 174 157 167 172 156 152 167 141 152 163 171 168 145 169 182
191 122 213 220 112 172 90 37 92 88 47 247 130 304 289 301 304 279 277 273 266 268 267 248 253 257 257 252 255 254 250 246 240 232 237 245 236 228 217 213 215 212 208 208 208 204 207 205 206 212 214 210 206 204 207 205 207 203 206 204 199 197 195 197 196 192 193 190 185 190 188 193 180 179 179 179 171 181 176 175 175 176 166 159 169 176 169 163 158 157 164 168 171 166 157 187 178
105 202 215 78 69 108 164 220 351 190 209 254 95 229 288 303 261 293 305 274 260 258 247 246 259 263 262 249 247 246 238 236 245 250 253 248 238 232 218 210 205 205 210 216 218 211 211 209 207 208 206 209 208 198 202 200 198 201 198 199 200 199 198 199 192 192 187 178 184 184 177 168 187 184 174 178 170 175 177 179 175 174 166 168 177 174 172 168 163 167 168 172 171 157 182 189 189
190 201 173 162 203 221 277 131 228 189 231 265 285 249 247 200 231 346 254 254 266 253 236 241 257 243 239 248 254 257 252 269 258 249 250 248 235 234 217 216 214 213 212 213 217 208 210 214 211 206 210 210 203 198 198 200 198 199 198 200 199 199 198 195 195 184 172 179 181 182 183 188 171 169 166 168 175 175 175 179 176 177 174 178 175 176 170 167 167 163 168 173 154 162 174 189 193
77 80 192 236 115 236 156 202 185 134 248 176 282 92 251 187 208 204 266 239 246 267 271 236 238 233 227 238 249 254 251 236 243 245 243 243 239 223 213 210 211 212 209 211 206 195 207 211 202 208 210 194 185 191 189 196 196 194 197 195 199 194 192 192 185 175 178 184 184 181 182 175 184 169 175 172 174 173 174 177 180 175 178 175 175 177 172 170 164 169 167 168 167 162 167 174 172
149 142 192 202 194 257 123 206 165 192 186 190 225 278 245 227 202 189 226 255 227 219 231 232 233 236 237 239 242 249 249 254 253 255 265 260 248 240 236 229 220 205 200 193 193 199 206 198 201 197 192 190 188 189 184 197 188 197 187 189 188 185 188 182 173 178 179 185 183 181 183 181 149 179 168 169 174 174 172 175 172 177 175 174 174 173 175 167 164 166 168 168 162 165 159 164 142
187 187 200 193 157 171 179 232 43 129 184 230 141 254 269 247 176 194 199 230 257 210 215 244 259 269 262 252 249 238 254 254 256 265 264 266 262 258 262 248 220 175 184 192 202 193 201 199 201 194 193 195 191 194 194 191 183 175 184 185 183 180 174 169 174 178 183 182 178 181 170 151 178 176 170 170 171 169 169 169 172 173 172 170 173 171 171 166 164 166 169 171 164 164 158 157 145